WT9M-8 Weather Reports


Display with metric or nautical units.
time (UTC)temp
F
wind
direction
speed
MPH
gust
MPH
rain 1hr
in
rain 24hr
in
rain mn
in
humidity
%
barometer
mb
20260508065025 27 0.0 0.0 0.00 0.00 0.00 78 1010.6
20260508064021 28 0.0 0.0 0.00 0.00 0.00 78 1010.7
20260508063018 28 0.0 0.0 0.00 0.00 0.00 77 1010.9
20260508062037 28 0.0 0.0 0.00 0.00 0.00 76 1010.8
20260508061051 28 0.0 0.0 0.00 0.00 0.00 76 1011.0
20260508060030 28 0.0 0.0 0.00 0.00 0.00 76 1011.0
20260508055025 28 0.0 0.0 0.00 0.00 0.00 76 1011.0
20260508054022 29 0.0 0.0 0.00 0.00 0.00 75 1011.0
20260508053018 29 0.0 0.0 0.00 0.00 0.00 75 1011.1
20260508052035 29 0.0 0.0 0.00 0.00 0.00 75 1011.1
20260508051031 29 0.0 0.0 0.00 0.00 0.00 74 1011.2
20260508050028 30 0.0 0.0 0.00 0.00 0.00 74 1011.2
20260508045025 30 0.0 0.0 0.00 0.00 0.00 74 1011.2
20260508044042 30 0.0 0.0 0.00 0.00 0.00 73 1011.2
20260508043018 30 0.0 0.0 0.00 0.00 0.00 72 1011.1
20260508042034 31 0.0 0.0 0.00 0.00 0.00 72 1011.3
20260508041031 31 0.0 0.0 0.00 0.00 0.00 72 1011.3
20260508040028 32 0.0 0.0 0.00 0.00 0.00 71 1011.1
20260508035024 32 0.0 0.0 0.00 0.00 0.00 71 1011.2
20260508034101 33 0.0 0.0 0.00 0.00 0.00 72 1011.1
20260508033018 33 0.0 0.0 0.00 0.00 0.00 72 1011.0
20260508032054 33 0.0 0.0 0.00 0.00 0.00 69 1011.0
20260508031031 34 0.0 0.0 0.00 0.00 0.00 69 1010.9
20260508030049 34 0.0 0.0 0.00 0.00 0.00 69 1010.9
20260508025024 35 0.0 0.0 0.00 0.00 0.00 67 1010.8
20260508024041 36 89 1.0 2.0 0.00 0.00 0.00 67 1010.8
20260508023018 37 91 2.0 2.0 0.00 0.00 0.00 67 1010.6
20260508022034 38 85 2.0 3.0 0.00 0.00 0.00 67 1010.4
20260508021032 38 93 1.0 2.0 0.00 0.00 0.00 65 1010.3
20260508020048 39 84 3.0 3.0 0.00 0.00 0.00 66 1010.2
20260508015024 40 80 3.0 4.0 0.00 0.00 0.00 64 1010.1
20260508014021 42 82 3.0 3.0 0.00 0.00 0.00 60 1010.0
20260508013039 44 83 2.0 3.0 0.00 0.00 0.00 54 1009.9
20260508012034 47 81 2.0 2.0 0.00 0.00 0.00 49 1009.7
20260508011051 49 86 0.0 1.0 0.00 0.00 0.00 43 1009.8
20260508010028 51 220 1.0 2.0 0.00 0.00 0.00 40 1009.7
20260508005024 52 219 1.0 4.0 0.00 0.00 0.00 39 1009.6
20260508004022 54 214 1.0 2.0 0.00 0.00 0.00 38 1009.4
20260508003017 55 209 2.0 3.0 0.00 0.00 0.00 37 1009.3
20260508002034 56 246 2.0 4.0 0.00 0.00 0.00 36 1009.3
20260508001031 57 253 2.0 3.0 0.00 0.00 0.00 36 1009.2
20260508000047 58 272 3.0 8.0 0.00 0.00 0.00 35 1009.1
20260507235021 59 267 3.0 9.0 0.00 0.00 0.00 35 1009.2
20260507234018 59 250 2.0 3.0 0.00 0.00 0.00 34 1009.1
20260507233036 59 268 4.0 9.0 0.00 0.00 0.00 33 1009.0
20260507232032 60 261 4.0 10.0 0.00 0.00 0.00 34 1009.1
20260507231028 60 260 4.0 7.0 0.00 0.00 0.00 33 1009.1
20260507230045 61 243 5.0 13.0 0.00 0.00 0.00 32 1009.2
20260507225041 63 248 5.0 11.0 0.00 0.00 0.00 32 1009.3
20260507224018 64 234 7.0 14.0 0.00 0.00 0.00 31 1009.2
20260507223035 65 269 4.0 11.0 0.00 0.00 0.00 30 1009.1
20260507222031 67 248 5.0 11.0 0.00 0.00 0.00 31 1009.1
20260507221028 68 261 4.0 8.0 0.00 0.00 0.00 30 1009.3
20260507220024 67 239 2.0 7.0 0.00 0.00 0.00 32 1009.2
20260507215021 67 289 4.0 9.0 0.00 0.00 0.00 32 1009.2
20260507214017 68 285 5.0 13.0 0.00 0.00 0.00 30 1009.3
20260507213034 69 256 5.0 10.0 0.00 0.00 0.00 31 1009.2
20260507212031 69 237 6.0 14.0 0.00 0.00 0.00 32 1009.3
20260507211028 69 273 4.0 11.0 0.00 0.00 0.00 32 1009.2
20260507210024 69 264 5.0 11.0 0.00 0.00 0.00 33 1009.2
20260507205022 68 286 5.0 10.0 0.00 0.00 0.00 32 1009.3
20260507204037 68 257 5.0 13.0 0.00 0.00 0.00 34 1009.3
20260507203054 68 220 7.0 17.0 0.00 0.00 0.00 34 1009.4
20260507202030 68 255 5.0 14.0 0.00 0.00 0.00 35 1009.7
20260507201027 67 207 9.0 18.0 0.00 0.00 0.00 34 1009.7
20260507200024 67 261 6.0 11.0 0.00 0.00 0.00 35 1009.9
20260507195040 67 247 9.0 21.0 0.00 0.00 0.00 34 1009.8
20260507194038 68 270 7.0 14.0 0.00 0.00 0.00 34 1010.0
20260507193034 68 262 5.0 14.0 0.00 0.00 0.00 38 1009.8
20260507192031 68 251 5.0 10.0 0.00 0.00 0.00 36 1009.8
20260507191027 67 279 3.0 7.0 0.00 0.00 0.00 37 1010.2
20260507190024 68 234 7.0 19.0 0.00 0.00 0.00 38 1010.0
20260507185021 67 246 5.0 9.0 0.00 0.00 0.00 38 1010.0
20260507184017 67 210 4.0 7.0 0.00 0.00 0.00 41 1010.1
20260507183034 65 276 6.0 16.0 0.00 0.00 0.00 41 1010.2
20260507182051 64 248 5.0 9.0 0.00 0.00 0.00 41 1010.4
20260507181027 64 290 2.0 7.0 0.00 0.00 0.00 41 1010.3
20260507180044 64 186 4.0 9.0 0.00 0.00 0.00 40 1010.5
20260507175020 64 230 3.0 7.0 0.00 0.00 0.00 41 1010.6
20260507174036 64 283 2.0 8.0 0.00 0.00 0.00 43 1010.9
20260507173033 63 222 2.0 8.0 0.00 0.00 0.00 44 1011.0
20260507172031 61 237 2.0 7.0 0.00 0.00 0.00 44 1011.0
20260507171026 61 182 4.0 6.0 0.00 0.00 0.00 43 1011.2
20260507170023 62 80 4.0 9.0 0.00 0.00 0.00 42 1011.5
20260507165020 61 341 2.0 6.0 0.00 0.00 0.00 46 1011.4
20260507164017 59 310 3.0 7.0 0.00 0.00 0.00 47 1011.4
20260507163033 58 276 3.0 4.0 0.00 0.00 0.00 47 1011.3
20260507162030 58 282 2.0 9.0 0.00 0.00 0.00 46 1011.4
20260507161026 57 294 1.0 3.0 0.00 0.00 0.00 47 1011.6
20260507160023 57 95 4.0 7.0 0.00 0.00 0.00 45 1011.6
20260507155021 57 193 2.0 6.0 0.00 0.00 0.00 46 1012.1
20260507154016 59 234 2.0 6.0 0.00 0.00 0.00 49 1012.1
20260507153053 58 54 2.0 6.0 0.00 0.00 0.00 50 1012.0
20260507152030 57 343 1.0 3.0 0.00 0.00 0.00 54 1012.0
20260507151026 55 280 2.0 4.0 0.00 0.00 0.00 57 1012.2
20260507150024 55 281 2.0 3.0 0.00 0.00 0.00 60 1012.3
20260507145019 54 287 2.0 6.0 0.00 0.00 0.00 62 1012.4
20260507144016 53 348 1.0 3.0 0.00 0.00 0.00 66 1012.5
20260507143033 52 303 1.0 3.0 0.00 0.00 0.00 69 1012.7
20260507142029 50 336 1.0 3.0 0.00 0.00 0.00 73 1012.9
20260507141026 48 316 1.0 3.0 0.00 0.00 0.00 76 1012.8
20260507140022 45 269 1.0 3.0 0.00 0.00 0.00 78 1013.1
20260507135021 44 287 1.0 3.0 0.00 0.00 0.00 80 1013.1
20260507134117 41 272 2.0 6.0 0.00 0.00 0.00 81 1013.1
20260507133052 39 297 1.0 3.0 0.00 0.00 0.00 82 1013.2
20260507132029 37 66 0.0 2.0 0.00 0.00 0.00 82 1013.4
20260507131047 37 0.0 0.0 0.00 0.00 0.00 82 1013.7
20260507130022 37 279 0.0 1.0 0.00 0.00 0.00 83 1013.7
20260507125038 36 328 0.0 1.0 0.00 0.00 0.00 83 1013.7
20260507124036 36 0.0 0.0 0.00 0.00 0.00 83 1013.5
20260507123032 36 0.0 0.0 0.00 0.00 0.00 84 1013.4
20260507122028 34 0.0 0.0 0.00 0.00 0.00 85 1013.5
20260507121025 32 0.0 0.0 0.00 0.00 0.00 85 1013.4
20260507120022 31 0.0 0.0 0.00 0.00 0.00 84 1013.6
20260507115018 30 0.0 0.0 0.00 0.00 0.00 84 1013.5
20260507114035 30 0.0 0.0 0.00 0.00 0.00 84 1013.5
20260507113033 29 0.0 0.0 0.00 0.00 0.00 84 1013.4
20260507112048 29 0.0 0.0 0.00 0.00 0.00 84 1013.5
20260507111025 28 0.0 0.0 0.00 0.00 0.00 84 1013.5
20260507110022 28 0.0 0.0 0.00 0.00 0.00 84 1013.3
20260507105018 28 0.0 0.0 0.00 0.00 0.00 84 1013.4
20260507104055 28 0.0 0.0 0.00 0.00 0.00 84 1013.5
20260507103052 28 0.0 0.0 0.00 0.00 0.00 84 1013.5
20260507102028 28 0.0 0.0 0.00 0.00 0.00 83 1013.5
20260507101025 28 0.0 0.0 0.00 0.00 0.00 83 1013.6
20260507100022 28 0.0 0.0 0.00 0.00 0.00 83 1013.7
20260507095018 28 0.0 0.0 0.00 0.00 0.00 83 1013.7
20260507094035 28 0.0 0.0 0.00 0.00 0.00 83 1013.7
20260507093031 27 0.0 0.0 0.00 0.00 0.00 83 1014.0
20260507092028 27 0.0 0.0 0.00 0.00 0.00 83 1013.9
20260507091025 27 0.0 0.0 0.00 0.00 0.00 83 1013.8
20260507090022 27 0.0 0.0 0.00 0.00 0.00 83 1014.0
20260507085040 27 0.0 0.0 0.00 0.00 0.00 83 1014.0
20260507084035 26 0.0 0.0 0.00 0.00 0.00 82 1014.1
20260507083052 26 0.0 0.0 0.00 0.00 0.00 82 1014.2
20260507082030 26 0.0 0.0 0.00 0.00 0.00 82 1014.2
20260507081025 26 0.0 0.0 0.00 0.00 0.00 82 1014.2
20260507080023 26 0.0 0.0 0.00 0.00 0.00 82 1014.4
20260507075018 25 0.0 0.0 0.00 0.00 0.00 83 1014.3
20260507074035 25 0.0 0.0 0.00 0.00 0.00 82 1014.4
20260507073032 24 0.0 0.0 0.00 0.00 0.00 82 1014.3
20260507072028 24 0.0 0.0 0.00 0.00 0.00 81 1014.3
20260507071026 25 0.0 0.0 0.00 0.00 0.00 81 1014.3
20260507070021 25 0.0 0.0 0.00 0.00 0.00 81 1014.4